CW1102 Weather Reports


Display with metric or nautical units.
time (UTC)temp
F
wind
direction
speed
MPH
gust
MPH
rain 1hr
in
rain 24hr
in
rain mn
in
humidity
%
barometer
mb
20260902073031 62 309 2.0 8.0 0.00 0.00 0.00 47 1005.5
20260902071529 63 318 5.0 12.0 0.00 0.00 0.00 47 1005.6
20260902070023 64 310 5.0 10.0 0.00 0.00 0.00 46 1005.5
20260902064526 65 328 8.0 16.0 0.00 0.00 0.00 45 1005.6
20260902063041 65 326 7.0 19.0 0.00 0.00 0.00 46 1005.5
20260902061522 64 328 5.0 8.0 0.00 0.00 0.00 49 1005.4
20260902060021 66 300 3.0 7.0 0.00 0.00 0.00 47 1005.3
20260902054521 67 306 3.0 10.0 0.00 0.00 0.00 46 1005.0
20260902053020 65 284 1.0 4.0 0.00 0.00 0.00 50 1004.8
20260902051533 66 297 2.0 8.0 0.00 0.00 0.00 48 1004.8
20260902050019 68 304 2.0 4.0 0.00 0.00 0.00 46 1004.6
20260902044518 69 284 2.0 9.0 0.00 0.00 0.00 45 1004.6
20260902043017 66 321 4.0 8.0 0.00 0.00 0.00 50 1004.4
20260902041526 65 311 3.0 4.0 0.00 0.00 0.00 52 1004.3
20260902040023 65 288 1.0 3.0 0.00 0.00 0.00 51 1004.1
20260902034517 66 266 1.0 3.0 0.00 0.00 0.00 50 1003.7
20260902033015 67 268 1.0 4.0 0.00 0.00 0.00 48 1003.3
20260902031514 68 281 1.0 3.0 0.00 0.00 0.00 50 1003.0
20260902030014 68 269 1.0 2.0 0.00 0.00 0.00 54 1002.7
20260902024513 68 252 0.0 3.0 0.00 0.00 0.00 49 1002.5
20260902023012 70 25 0.0 2.0 0.00 0.00 0.00 51 1002.4
20260902021511 73 303 1.0 4.0 0.00 0.00 0.00 46 1002.4
20260902020012 74 317 1.0 5.0 0.00 0.00 0.00 45 1002.4
20260902014611 75 304 2.0 3.0 0.00 0.00 0.00 45 1002.5
20260902013012 77 252 0.0 1.0 0.00 0.00 0.00 42 1002.4
20260902011513 78 259 0.0 3.0 0.00 0.00 0.00 41 1002.4
20260902010008 78 272 2.0 11.0 0.00 0.00 0.00 42 1002.6
20260902004509 78 248 1.0 3.0 0.00 0.00 0.00 42 1002.8
20260902003020 78 292 1.0 4.0 0.00 0.00 0.00 41 1002.9
20260902001505 80 319 2.0 4.0 0.00 0.00 0.00 40 1003.1
20260902000004 79 42 0.0 6.0 0.00 0.00 0.00 39 1003.3
20260901234601 81 339 1.0 3.0 0.00 0.00 0.00 36 1003.4
20260901233058 79 60 2.0 5.0 0.00 0.00 0.00 38 1003.4
20260901231601 78 295 2.0 4.0 0.00 0.00 0.00 43 1003.7
20260901230051 76 278 2.0 5.0 0.00 0.00 0.00 45 1004.0
20260901224550 74 35 2.0 4.0 0.00 0.00 0.00 46 1004.3
20260901223044 73 298 3.0 6.0 0.00 0.00 0.00 46 1004.5
20260901221543 72 249 2.0 7.0 0.00 0.00 0.00 47 1004.6
20260901220042 71 3 3.0 5.0 0.00 0.00 0.00 50 1004.8
20260901214538 68 69 0.0 2.0 0.00 0.00 0.00 54 1004.9
20260901213030 67 290 2.0 4.0 0.00 0.00 0.00 53 1005.2
20260901211528 67 155 0.0 1.0 0.00 0.00 0.00 52 1005.6
20260901210025 67 89 2.0 2.0 0.00 0.00 0.00 52 1005.9
20260901204522 66 13 0.0 1.0 0.00 0.00 0.00 51 1006.1
20260901203019 65 18 0.0 3.0 0.00 0.00 0.00 53 1006.4
20260901201518 64 318 1.0 3.0 0.00 0.00 0.00 51 1006.5
20260901200015 64 193 0.0 5.0 0.00 0.00 0.00 47 1006.6
20260901194515 62 271 0.0 3.0 0.00 0.00 0.00 52 1006.9
20260901191514 62 273 1.0 7.0 0.00 0.00 0.00 54 1007.0
20260901190017 63 322 5.0 7.0 0.00 0.00 0.00 55 1007.1
20260901184513 63 333 2.0 4.0 0.00 0.00 0.00 50 1007.1
20260901183010 63 284 1.0 4.0 0.00 0.00 0.00 51 1007.0
20260901181511 63 129 0.0 6.0 0.00 0.00 0.00 44 1007.1
20260901180010 63 291 4.0 8.0 0.00 0.00 0.00 47 1006.9
20260901174507 64 200 0.0 5.0 0.00 0.00 0.00 49 1006.8
20260901173004 63 117 2.0 6.0 0.00 0.00 0.00 50 1006.4
20260901171507 63 79 3.0 9.0 0.00 0.00 0.00 51 1006.2
20260901170002 62 123 2.0 8.0 0.00 0.00 0.00 49 1006.6
20260901164614 62 65 4.0 6.0 0.00 0.00 0.00 52 1006.6
20260901163114 59 51 3.0 6.0 0.00 0.00 0.00 53 1006.6
20260901161552 58 148 0.0 2.0 0.00 0.00 0.00 51 1006.7
20260901160050 56 265 1.0 3.0 0.00 0.00 0.00 54 1006.9
20260901154553 53 286 0.0 2.0 0.00 0.00 0.00 61 1006.9
20260901153043 51 319 0.0 2.0 0.00 0.00 0.00 64 1006.8
20260901151540 51 86 1.0 4.0 0.00 0.00 0.00 69 1006.9
20260901150040 49 116 1.0 2.0 0.00 0.00 0.00 71 1006.6
20260901144540 48 165 0.0 2.0 0.00 0.00 0.00 74 1006.4
20260901143038 48 108 1.0 4.0 0.00 0.00 0.00 74 1006.4
20260901141537 47 98 1.0 3.0 0.00 0.00 0.00 76 1006.5
20260901140039 46 125 0.0 1.0 0.00 0.00 0.00 78 1006.5
20260901134537 48 78 1.0 3.0 0.00 0.00 0.00 73 1006.6
20260901133034 46 286 0.0 0.0 0.00 0.00 0.00 72 1006.5
20260901130032 45 141 0.0 0.0 0.00 0.00 0.00 80 1006.6
20260901124530 46 141 0.0 0.0 0.00 0.00 0.00 80 1006.7
20260901123027 46 141 0.0 1.0 0.00 0.00 0.00 78 1006.8
20260901121535 46 150 0.0 2.0 0.00 0.00 0.00 77 1006.7
20260901120024 47 115 1.0 2.0 0.00 0.00 0.00 76 1006.8
20260901114524 48 274 0.0 0.0 0.00 0.00 0.00 69 1006.9
20260901113022 48 321 0.0 2.0 0.00 0.00 0.00 70 1007.0
20260901111521 48 271 0.0 2.0 0.00 0.00 0.00 70 1007.2
20260901110019 48 319 1.0 2.0 0.00 0.00 0.00 73 1007.3
20260901104532 47 181 0.0 1.0 0.00 0.00 0.00 75 1007.5
20260901103022 47 141 0.0 3.0 0.00 0.00 0.00 75 1007.6
20260901101517 47 124 1.0 4.0 0.00 0.00 0.00 72 1007.6
20260901100015 47 233 0.0 2.0 0.00 0.00 0.00 72 1007.4
20260901094520 46 50 0.0 2.0 0.00 0.00 0.00 76 1007.6
20260901093012 46 84 0.0 1.0 0.00 0.00 0.00 76 1007.5
20260901091513 46 155 0.0 1.0 0.00 0.00 0.00 76 1007.7
20260901090010 47 86 0.0 2.0 0.00 0.00 0.00 74 1007.6
20260901084508 47 136 0.0 2.0 0.00 0.00 0.00 74 1007.6
20260901083003 48 87 0.0 0.0 0.00 0.00 0.00 72 1007.7
20260901081501 49 120 0.0 1.0 0.00 0.00 0.00 70 1007.7
20260901080003 49 121 0.0 1.0 0.00 0.00 0.00 70 1007.6
20260901074558 49 122 0.0 1.0 0.00 0.00 0.00 71 1007.8